Find Starlink 6245

NORAD ID: 57079 Int'l Des: 2023-088 Owner: SPXS Country: US Constellation: starlink operational
LEOCIRCULAR

Current View

Loading 3D Globe...

About Starlink 6245

Description loading...

Upcoming Passes

Passes for default location (London). Set your location on the main map for personalized predictions.

Altitude History

Loading altitude history...

Two-Line Element Set

1 57079U 23088AH 26149.96777664 .00000743 00000-0 36526-4 0 9993
2 57079 43.0065 356.8694 0001360 265.6028 94.4668 15.27576808162935
Epoch: May 29, 2026 • Age: 12 hours

Current Status

Altitude 491.0 km
Velocity 7.62 km/s
Sub-Earth Point -31.70°S, 159.03°E
Launch Date Jun 22, 2023
Age 2.9 years
Type internet

Technical Details

Classification Payload
Mass 305.00 kg
Dry Mass 290.00 kg
Total Mass 305.00 kg
Length 0.20 m
Diameter 2.80 m
Span 9.00 m
Shape Box + pan
Manufacturer SPXS
Bus Type Starlink
Phase Status In Orbit
Owner/State SPXS/US

Most Searched